Location: Blandford
(50.8667°N, 2.1667°W)
Time: 10:52:56
(UTC+00:00)

Cosmos 1980 Rocket - Pass Details

Date: 09 April 2020
Orbit: 829 x 850 km, 71.0° (Epoch: 25 May)

Event Time Altitude Azimuth Distance (km) Brightness Sun altitude
Rises 23:19:09 0° 323° (NW) 3,391 6.3 -30.1°
Reaches altitude 10° 23:21:55 10° 312° (NW) 2,455 5.2 -30.2°
Enters shadow 23:25:53 26° 268° (W) 1,583 3.6 -30.3°
